FW9042 Weather Reports


time (UTC)temp
C
wind
direction
speed
KPH
gust
KPH
rain 1hr
cm
rain 24hr
cm
rain mn
cm
humidity
%
barometer
mb
20260509005827 24 271 1.6 1.6 0.00 0.00 0.00 21 1013.9
20260509005325 24 123 3.2 3.2 0.00 0.00 0.00 21 1014.1
20260509004820 23 102 6.4 8.0 0.00 0.00 0.00 22 1014.1
20260509004316 24 21 6.4 9.7 0.00 0.00 0.00 22 1014.3
20260509003814 23 68 3.2 4.8 0.00 0.00 0.00 22 1014.1
20260509003312 23 81 3.2 3.2 0.00 0.00 0.00 22 1014.1
20260509002809 23 347 6.4 9.7 0.00 0.00 0.00 22 1014.2
20260509002307 24 320 8.0 11.3 0.00 0.00 0.00 22 1014.2
20260509001804 23 33 6.4 9.7 0.00 0.00 0.00 22 1014.2
20260509001259 24 89 6.4 11.3 0.00 0.00 0.00 21 1014.5
20260509000757 24 2 9.7 11.3 0.00 0.00 0.00 22 1014.3
20260509000256 23 288 3.2 8.0 0.00 0.00 0.00 22 1014.3
20260508235751 23 344 6.4 8.0 0.00 0.00 0.00 22 1014.5
20260508235248 23 89 1.6 3.2 0.00 0.00 0.00 22 1014.3
20260508234745 23 36 9.7 12.9 0.00 0.00 0.00 22 1014.4
20260508234241 23 67 9.7 12.9 0.00 0.00 0.00 22 1014.4
20260508233740 23 52 8.0 12.9 0.00 0.00 0.00 22 1014.4
20260508233238 23 21 8.0 11.3 0.00 0.00 0.00 22 1014.3
20260508232736 23 75 6.4 11.3 0.00 0.00 0.00 22 1014.3
20260508232232 23 341 1.6 4.8 0.00 0.00 0.00 23 1014.4
20260508231730 24 316 8.0 9.7 0.00 0.00 0.00 22 1014.3
20260508231226 23 335 4.8 4.8 0.00 0.00 0.00 22 1014.5
20260508230723 23 85 1.6 1.6 0.00 0.00 0.00 22 1014.4
20260508230219 23 328 14.5 20.9 0.00 0.00 0.00 23 1014.4
20260508225717 23 33 4.8 9.7 0.00 0.00 0.00 23 1014.3
20260508225214 24 19 14.5 20.9 0.00 0.00 0.00 23 1014.6
20260508224712 23 9 11.3 11.3 0.00 0.00 0.00 23 1014.7
20260508224209 23 39 3.2 8.0 0.00 0.00 0.00 23 1015.0
20260508223706 23 325 8.0 9.7 0.00 0.00 0.00 23 1015.1
20260508223204 23 19 14.5 20.9 0.00 0.00 0.00 23 1015.0
20260508222701 23 272 9.7 11.3 0.00 0.00 0.00 23 1014.9
20260508222158 23 318 8.0 11.3 0.00 0.00 0.00 23 1015.2
20260508221654 23 355 11.3 14.5 0.00 0.00 0.00 24 1014.9
20260508221150 23 38 12.9 16.1 0.00 0.00 0.00 23 1015.0
20260508220647 23 344 12.9 14.5 0.00 0.00 0.00 23 1015.1
20260508220143 23 326 8.0 9.7 0.00 0.00 0.00 24 1015.3
20260508215640 23 24 4.8 8.0 0.00 0.00 0.00 23 1015.4
20260508215136 23 83 11.3 17.7 0.00 0.00 0.00 24 1015.6
20260508214633 23 313 6.4 9.7 0.00 0.00 0.00 23 1015.6
20260508214131 23 65 8.0 11.3 0.00 0.00 0.00 24 1015.7
20260508213627 23 6 14.5 20.9 0.00 0.00 0.00 24 1015.6
20260508213123 23 40 12.9 16.1 0.00 0.00 0.00 24 1015.9
20260508212620 23 67 6.4 9.7 0.00 0.00 0.00 24 1015.8
20260508212117 22 68 11.3 16.1 0.00 0.00 0.00 24 1015.7
20260508211612 22 279 6.4 11.3 0.00 0.00 0.00 25 1015.9
20260508211109 22 10 4.8 11.3 0.00 0.00 0.00 24 1015.6
20260508210606 23 347 19.3 25.7 0.00 0.00 0.00 24 1015.9
20260508210103 23 17 9.7 14.5 0.00 0.00 0.00 25 1015.8
20260508205600 22 37 9.7 11.3 0.00 0.00 0.00 25 1016.1
20260508205057 22 5 17.7 22.5 0.00 0.00 0.00 24 1016.1
20260508204553 22 16 11.3 16.1 0.00 0.00 0.00 25 1015.9
20260508204049 22 324 12.9 16.1 0.00 0.00 0.00 25 1016.1
20260508203545 22 346 14.5 22.5 0.00 0.00 0.00 25 1015.9
20260508203041 22 23 22.5 27.4 0.00 0.00 0.00 25 1016.0
20260508202538 22 37 14.5 16.1 0.00 0.00 0.00 25 1016.1
20260508202035 22 7 11.3 16.1 0.00 0.00 0.00 25 1015.9
20260508201532 22 33 16.1 22.5 0.00 0.00 0.00 25 1016.1
20260508201028 22 0 24.1 29.0 0.00 0.00 0.00 25 1016.2
20260508200526 22 1 6.4 11.3 0.00 0.00 0.00 25 1016.5
20260508200021 22 342 17.7 27.4 0.00 0.00 0.00 26 1016.4
20260508195518 22 41 11.3 14.5 0.00 0.00 0.00 25 1016.4
20260508195014 22 358 8.0 11.3 0.00 0.00 0.00 26 1016.5
20260508194511 22 50 12.9 16.1 0.00 0.00 0.00 25 1016.5
20260508194009 22 25 8.0 16.1 0.00 0.00 0.00 25 1016.5
20260508193505 22 329 20.9 24.1 0.00 0.00 0.00 25 1016.5
20260508193002 22 333 12.9 17.7 0.00 0.00 0.00 26 1016.7
20260508192458 22 289 1.6 1.6 0.00 0.00 0.00 27 1016.4
20260508191955 22 2 16.1 20.9 0.00 0.00 0.00 26 1016.6
20260508191452 22 333 17.7 24.1 0.00 0.00 0.00 26 1016.5
20260508190949 22 27 19.3 33.8 0.00 0.00 0.00 25 1016.7
20260508190446 22 352 17.7 20.9 0.00 0.00 0.00 25 1016.6
20260508185942 22 350 12.9 16.1 0.00 0.00 0.00 26 1016.6
20260508185440 22 3 8.0 12.9 0.00 0.00 0.00 26 1016.7
20260508184937 22 16 14.5 20.9 0.00 0.00 0.00 26 1016.7
20260508184435 22 342 4.8 9.7 0.00 0.00 0.00 26 1016.8
20260508183931 22 355 19.3 22.5 0.00 0.00 0.00 26 1016.9
20260508183428 22 344 12.9 14.5 0.00 0.00 0.00 27 1016.6
20260508182923 22 345 16.1 20.9 0.00 0.00 0.00 26 1016.8
20260508182421 22 326 11.3 14.5 0.00 0.00 0.00 25 1016.9
20260508181921 22 278 14.5 20.9 0.00 0.00 0.00 24 1016.9
20260508181418 22 294 17.7 24.1 0.00 0.00 0.00 24 1016.9
20260508180915 22 287 14.5 16.1 0.00 0.00 0.00 23 1016.9
20260508180412 22 269 1.6 3.2 0.00 0.00 0.00 26 1016.9
20260508175908 22 112 3.2 4.8 0.00 0.00 0.00 28 1016.8
20260508175405 21 234 4.8 8.0 0.00 0.00 0.00 28 1016.9
20260508174903 22 212 4.8 9.7 0.00 0.00 0.00 27 1016.9
20260508174400 21 301 0.0 1.6 0.00 0.00 0.00 28 1017.2
20260508173856 20 110 12.9 14.5 0.00 0.00 0.00 30 1017.1
20260508173354 21 48 11.3 12.9 0.00 0.00 0.00 32 1017.3
20260508172849 20 54 4.8 8.0 0.00 0.00 0.00 33 1016.9
20260508172347 20 64 9.7 11.3 0.00 0.00 0.00 34 1017.4
20260508171843 20 357 6.4 8.0 0.00 0.00 0.00 34 1017.6
20260508171339 20 308 4.8 8.0 0.00 0.00 0.00 35 1017.3
20260508170836 20 54 3.2 3.2 0.00 0.00 0.00 35 1017.3
20260508170334 20 288 8.0 11.3 0.00 0.00 0.00 34 1017.2
20260508165830 20 8 6.4 9.7 0.00 0.00 0.00 34 1017.2
20260508165328 20 339 11.3 14.5 0.00 0.00 0.00 34 1017.1
20260508164824 20 8 9.7 12.9 0.00 0.00 0.00 33 1017.3
20260508164321 20 65 6.4 11.3 0.00 0.00 0.00 35 1017.3
20260508163819 20 107 6.4 9.7 0.00 0.00 0.00 34 1017.2
20260508163316 20 37 8.0 12.9 0.00 0.00 0.00 34 1017.2
20260508162812 20 312 4.8 8.0 0.00 0.00 0.00 34 1017.1
20260508162309 20 14 4.8 11.3 0.00 0.00 0.00 33 1017.2
20260508161806 20 52 3.2 4.8 0.00 0.00 0.00 33 1016.9
20260508161303 20 349 1.6 3.2 0.00 0.00 0.00 33 1017.2
20260508160801 20 320 3.2 4.8 0.00 0.00 0.00 34 1016.8
20260508160259 21 17 9.7 12.9 0.00 0.00 0.00 32 1016.9
20260508155755 20 178 0.0 0.0 0.00 0.00 0.00 34 1016.9
20260508155252 20 125 6.4 8.0 0.00 0.00 0.00 33 1016.8
20260508154749 20 331 0.0 0.0 0.00 0.00 0.00 34 1016.9
20260508154247 20 161 0.0 0.0 0.00 0.00 0.00 34 1016.9
20260508153743 20 301 0.0 0.0 0.00 0.00 0.00 35 1017.1
20260508153240 21 173 1.6 1.6 0.00 0.00 0.00 35 1016.9
20260508152736 20 225 0.0 0.0 0.00 0.00 0.00 37 1017.1
20260508152233 20 95 1.6 1.6 0.00 0.00 0.00 36 1017.1
20260508151729 20 194 0.0 0.0 0.00 0.00 0.00 36 1016.9
20260508151226 20 185 0.0 0.0 0.00 0.00 0.00 36 1016.7
20260508150722 20 210 0.0 0.0 0.00 0.00 0.00 36 1016.6
20260508150219 20 107 0.0 0.0 0.00 0.00 0.00 36 1016.8
20260508145715 20 202 0.0 0.0 0.00 0.00 0.00 36 1016.7
20260508145211 19 207 0.0 0.0 0.00 0.00 0.00 37 1016.6
20260508144709 19 185 0.0 0.0 0.00 0.00 0.00 37 1016.7
20260508144207 18 178 0.0 0.0 0.00 0.00 0.00 38 1016.4
20260508143704 18 150 1.6 3.2 0.00 0.00 0.00 38 1016.7
20260508143201 18 194 0.0 0.0 0.00 0.00 0.00 39 1016.7
20260508142657 18 148 1.6 1.6 0.00 0.00 0.00 39 1016.4
20260508142154 18 207 0.0 1.6 0.00 0.00 0.00 39 1016.5
20260508141650 18 221 0.0 0.0 0.00 0.00 0.00 39 1016.5
20260508141148 18 235 0.0 0.0 0.00 0.00 0.00 39 1016.4
20260508140645 17 238 0.0 0.0 0.00 0.00 0.00 41 1016.2
20260508140142 17 233 0.0 0.0 0.00 0.00 0.00 42 1016.4
20260508135638 16 233 0.0 0.0 0.00 0.00 0.00 44 1016.2
20260508135133 16 235 0.0 0.0 0.00 0.00 0.00 45 1016.4
20260508134630 15 240 0.0 0.0 0.00 0.00 0.00 47 1016.2
20260508134128 13 241 0.0 0.0 0.00 0.00 0.00 49 1016.2
20260508133624 12 238 0.0 0.0 0.00 0.00 0.00 52 1016.1
20260508133121 12 233 0.0 1.6 0.00 0.00 0.00 53 1016.1
20260508132619 12 229 1.6 1.6 0.00 0.00 0.00 52 1016.1
20260508132116 12 233 0.0 0.0 0.00 0.00 0.00 51 1016.1
20260508131611 11 233 0.0 0.0 0.00 0.00 0.00 52 1015.9
20260508131108 11 236 0.0 0.0 0.00 0.00 0.00 54 1016.0
20260508130605 11 238 0.0 0.0 0.00 0.00 0.00 55 1015.7
20260508125557 10 245 0.0 0.0 0.00 0.00 0.00 58 1016.0
20260508125055 10 251 0.0 0.0 0.00 0.00 0.00 57 1015.9
20260508124553 10 251 0.0 0.0 0.00 0.00 0.00 56 1015.8
20260508124049 10 251 0.0 0.0 0.00 0.00 0.00 56 1015.7
20260508123548 10 254 0.0 0.0 0.00 0.00 0.00 56 1015.3
20260508123044 11 254 0.0 0.0 0.00 0.00 0.00 55 1015.3
20260508122541 10 254 0.0 0.0 0.00 0.00 0.00 55 1015.4
20260508122038 11 253 0.0 0.0 0.00 0.00 0.00 57 1015.6
20260508121537 11 269 0.0 0.0 0.00 0.00 0.00 50 1015.3
20260508121034 12 272 0.0 0.0 0.00 0.00 0.00 49 1015.2
20260508120531 12 273 0.0 0.0 0.00 0.00 0.00 48 1015.3
20260508120030 12 280 0.0 0.0 0.00 0.00 0.00 48 1015.4
20260508115527 12 269 0.0 0.0 0.00 0.00 0.00 48 1015.4
20260508115023 12 268 0.0 0.0 0.00 0.00 0.00 47 1015.2
20260508114520 12 273 0.0 0.0 0.00 0.00 0.00 47 1015.3
20260508114017 12 270 0.0 0.0 0.00 0.00 0.00 47 1015.4
20260508113514 12 272 0.0 0.0 0.00 0.00 0.00 46 1015.3
20260508113012 12 287 0.0 0.0 0.00 0.00 0.00 45 1015.1
20260508112508 12 302 0.0 0.0 0.00 0.00 0.00 46 1015.1
20260508112005 12 292 0.0 0.0 0.00 0.00 0.00 46 1015.1
20260508111502 12 308 0.0 0.0 0.00 0.00 0.00 45 1015.2
20260508110959 12 297 0.0 0.0 0.00 0.00 0.00 47 1015.4
20260508110457 12 276 0.0 0.0 0.00 0.00 0.00 47 1015.1
20260508105956 12 275 0.0 0.0 0.00 0.00 0.00 47 1015.0
20260508105453 12 272 0.0 0.0 0.00 0.00 0.00 48 1015.2
20260508104950 12 270 0.0 0.0 0.00 0.00 0.00 48 1014.9
20260508104448 11 256 0.0 0.0 0.00 0.00 0.00 50 1015.0
20260508103944 11 240 0.0 0.0 0.00 0.00 0.00 50 1014.7
20260508103441 11 228 0.0 0.0 0.00 0.00 0.00 50 1014.9
20260508102938 11 234 0.0 0.0 0.00 0.00 0.00 53 1015.0
20260508102437 11 245 0.0 0.0 0.00 0.00 0.00 56 1014.9
20260508101933 11 245 0.0 0.0 0.00 0.00 0.00 52 1015.1
20260508101431 11 245 0.0 0.0 0.00 0.00 0.00 51 1015.0
20260508100928 11 245 0.0 0.0 0.00 0.00 0.00 53 1015.0
20260508100427 11 245 0.0 0.0 0.00 0.00 0.00 52 1014.9
20260508095922 11 244 0.0 0.0 0.00 0.00 0.00 52 1015.1
20260508095420 11 244 0.0 0.0 0.00 0.00 0.00 50 1014.7
20260508094916 12 245 0.0 0.0 0.00 0.00 0.00 49 1014.9
20260508094413 12 244 0.0 0.0 0.00 0.00 0.00 48 1014.7
20260508093910 12 244 0.0 0.0 0.00 0.00 0.00 48 1014.7
20260508093408 11 238 0.0 0.0 0.00 0.00 0.00 51 1014.7
20260508092905 11 225 0.0 0.0 0.00 0.00 0.00 56 1014.5
20260508092403 12 211 0.0 0.0 0.00 0.00 0.00 52 1014.7
20260508091901 11 200 0.0 0.0 0.00 0.00 0.00 52 1014.6
20260508091357 12 128 0.0 1.6 0.00 0.00 0.00 51 1014.6
20260508090855 12 267 0.0 0.0 0.00 0.00 0.00 51 1014.5
20260508090354 12 265 0.0 0.0 0.00 0.00 0.00 48 1014.4
20260508085849 13 272 0.0 0.0 0.00 0.00 0.00 47 1014.6
20260508085346 13 280 0.0 0.0 0.00 0.00 0.00 47 1014.5
20260508084842 13 280 0.0 0.0 0.00 0.00 0.00 46 1014.5
20260508084339 13 279 0.0 0.0 0.00 0.00 0.00 46 1014.6
20260508083837 13 273 0.0 0.0 0.00 0.00 0.00 45 1014.6
20260508083334 14 298 0.0 0.0 0.00 0.00 0.00 42 1014.7
20260508082834 14 278 0.0 0.0 0.00 0.00 0.00 42 1014.5
20260508082332 13 265 0.0 0.0 0.00 0.00 0.00 46 1014.7
20260508081829 12 261 0.0 0.0 0.00 0.00 0.00 47 1014.6
20260508081326 12 253 0.0 0.0 0.00 0.00 0.00 47 1014.5
20260508080823 12 250 0.0 0.0 0.00 0.00 0.00 49 1014.4
20260508080321 12 243 0.0 0.0 0.00 0.00 0.00 48 1014.7
20260508075817 12 243 0.0 0.0 0.00 0.00 0.00 48 1014.6
20260508075314 13 242 0.0 0.0 0.00 0.00 0.00 47 1014.6
20260508074812 13 240 0.0 0.0 0.00 0.00 0.00 47 1014.7
20260508074309 13 246 0.0 0.0 0.00 0.00 0.00 47 1014.7
20260508073806 12 251 0.0 0.0 0.00 0.00 0.00 48 1014.6
20260508073304 12 252 0.0 0.0 0.00 0.00 0.00 49 1014.6
20260508072759 12 252 0.0 0.0 0.00 0.00 0.00 47 1014.9
20260508072256 13 251 0.0 0.0 0.00 0.00 0.00 47 1014.6
20260508071754 13 255 0.0 0.0 0.00 0.00 0.00 48 1014.5
20260508071252 13 224 0.0 0.0 0.00 0.00 0.00 48 1014.4
20260508070749 13 223 0.0 0.0 0.00 0.00 0.00 48 1014.5
20260508070248 15 213 0.0 0.0 0.00 0.00 0.00 47 1014.6
20260508065744 15 270 0.0 0.0 0.00 0.00 0.00 39 1014.5
20260508065242 15 277 1.6 1.6 0.00 0.00 0.00 39 1014.4
20260508064740 15 320 4.8 4.8 0.00 0.00 0.00 39 1014.5
20260508064238 15 285 3.2 3.2 0.00 0.00 0.00 40 1014.3
20260508063735 15 304 1.6 3.2 0.00 0.00 0.00 40 1014.3
20260508063233 15 318 1.6 1.6 0.00 0.00 0.00 40 1014.5
20260508062730 15 279 0.0 0.0 0.00 0.00 0.00 42 1014.2
20260508062227 15 285 1.6 1.6 0.00 0.00 0.00 42 1014.5
20260508061724 15 301 0.0 0.0 0.00 0.00 0.00 44 1014.6
20260508061221 15 345 3.2 4.8 0.00 0.00 0.00 43 1014.4
20260508060717 14 339 8.0 9.7 0.00 0.00 0.00 44 1014.3
20260508060216 13 216 0.0 0.0 0.00 0.00 0.00 46 1014.1
20260508055711 13 226 0.0 0.0 0.00 0.00 0.00 47 1014.1
20260508055208 14 231 0.0 0.0 0.00 0.00 0.00 46 1013.9
20260508054704 14 233 0.0 0.0 0.00 0.00 0.00 45 1014.2
20260508054202 14 227 0.0 0.0 0.00 0.00 0.00 45 1014.1
20260508053659 14 229 0.0 0.0 0.00 0.00 0.00 45 1014.1
20260508053156 15 228 0.0 0.0 0.00 0.00 0.00 45 1013.9
20260508052654 15 228 0.0 0.0 0.00 0.00 0.00 44 1014.2
20260508052150 15 229 0.0 0.0 0.00 0.00 0.00 44 1013.8
20260508051647 15 231 0.0 0.0 0.00 0.00 0.00 42 1014.2
20260508051142 15 247 0.0 0.0 0.00 0.00 0.00 42 1014.1
20260508050638 15 249 0.0 0.0 0.00 0.00 0.00 43 1013.9
20260508050136 14 250 0.0 0.0 0.00 0.00 0.00 43 1013.9
20260508045632 15 239 0.0 0.0 0.00 0.00 0.00 44 1014.3
20260508045130 15 235 0.0 0.0 0.00 0.00 0.00 43 1013.9
20260508044627 15 229 3.2 4.8 0.00 0.00 0.00 43 1014.1
20260508044123 15 214 3.2 3.2 0.00 0.00 0.00 43 1013.9
20260508043620 15 226 1.6 3.2 0.00 0.00 0.00 43 1014.3
20260508043118 15 229 3.2 3.2 0.00 0.00 0.00 42 1013.9
20260508042614 15 231 0.0 1.6 0.00 0.00 0.00 43 1014.2
20260508042111 15 232 3.2 4.8 0.00 0.00 0.00 43 1013.8
20260508041607 15 230 1.6 3.2 0.00 0.00 0.00 42 1014.1
20260508041104 15 244 0.0 0.0 0.00 0.00 0.00 41 1014.1
20260508040601 15 241 0.0 0.0 0.00 0.00 0.00 42 1014.1
20260508040059 15 234 0.0 0.0 0.00 0.00 0.00 42 1013.9
20260508035555 16 240 0.0 0.0 0.00 0.00 0.00 42 1014.1
20260508035053 16 235 0.0 0.0 0.00 0.00 0.00 42 1014.2
20260508034549 16 232 1.6 3.2 0.00 0.00 0.00 40 1013.9
20260508034046 16 234 3.2 3.2 0.00 0.00 0.00 40 1013.7
20260508033544 16 239 3.2 3.2 0.00 0.00 0.00 40 1013.7
20260508033042 17 236 3.2 3.2 0.00 0.00 0.00 38 1014.1
20260508032538 17 260 0.0 0.0 0.00 0.00 0.00 37 1013.8
20260508032036 18 269 0.0 0.0 0.00 0.00 0.00 36 1013.8
20260508031533 18 272 0.0 0.0 0.00 0.00 0.00 35 1013.5
20260508031029 18 274 0.0 0.0 0.00 0.00 0.00 35 1013.6
20260508030525 18 271 0.0 0.0 0.00 0.00 0.00 34 1013.5
20260508030024 18 292 0.0 0.0 0.00 0.00 0.00 34 1013.6
20260508025519 18 259 0.0 0.0 0.00 0.00 0.00 34 1013.6
20260508025016 19 261 0.0 0.0 0.00 0.00 0.00 34 1013.5
20260508024512 19 270 0.0 0.0 0.00 0.00 0.00 32 1013.4
20260508024009 19 282 0.0 0.0 0.00 0.00 0.00 31 1013.2
20260508023506 20 291 0.0 0.0 0.00 0.00 0.00 31 1013.5
20260508023004 20 298 0.0 0.0 0.00 0.00 0.00 30 1013.1
20260508022459 20 308 0.0 0.0 0.00 0.00 0.00 29 1013.4
20260508021955 21 300 0.0 0.0 0.00 0.00 0.00 29 1013.1
20260508021452 21 324 0.0 0.0 0.00 0.00 0.00 29 1012.9
20260508020948 21 357 0.0 0.0 0.00 0.00 0.00 28 1013.5
20260508020446 21 45 0.0 0.0 0.00 0.00 0.00 28 1013.1
20260508015943 22 37 0.0 0.0 0.00 0.00 0.00 27 1013.0
20260508015441 22 150 1.6 3.2 0.00 0.00 0.00 27 1012.9
20260508014937 22 98 1.6 3.2 0.00 0.00 0.00 27 1013.2
20260508014434 22 143 6.4 9.7 0.00 0.00 0.00 27 1012.8
20260508013930 22 134 3.2 4.8 0.00 0.00 0.00 27 1013.0
20260508013426 22 174 4.8 4.8 0.00 0.00 0.00 27 1013.0
20260508012924 22 121 6.4 8.0 0.00 0.00 0.00 26 1013.1
20260508012420 22 167 0.0 1.6 0.00 0.00 0.00 26 1013.1
20260508011918 22 131 0.0 0.0 0.00 0.00 0.00 26 1013.1
20260508011416 22 130 4.8 4.8 0.00 0.00 0.00 26 1013.2
20260508010913 24 218 0.0 0.0 0.00 0.00 0.00 24 1013.0
20260508010410 23 277 0.0 0.0 0.00 0.00 0.00 23 1013.1